Weather in Umygan

Russia / Irkutsk Oblast     54°45′02″N   100°13′50″E
temp.,
°C
wind,
m/s
gust,
m/s
humid.,
%
clouds,
%
prec.,
mm/h
press.,
hPa
HPBL,
m
7 march, sun
sun723:00−8sse238864 0.0 101947
02:00−9s249583 0.0 101876
05:00−10ssw2385100 0.0 101633
08:00−7s1281100 0.0 101721
11:00−4sse3682100 0.0 1014260
14:00−1sw2484100 0.0 1013536
17:000wsw2590100 0.0 1013309
20:00−3nw3894100 0.1 1016290
8 march, mon
mon823:00−4nw41288100 0.0 1018582
02:00−7nw51479100 0.4 1021615
05:00−9wnw31186100 0.0 1024888
08:00−11wnw2486100 0.0 1027111
11:00−8w377656 0.0 1027659
14:00−4wsw237163 0.0 1025802
17:00−4se238127 0.0 1023728
20:00−9se3109152 0.0 1023249
9 march, tue
tue923:00−8sse4139299 0.0 1020389
02:00−8sse4119499 0.0 1017325
05:00−11s379591 0.0 1015146
08:00−9sw228888 0.0 101636
11:00+1w31283100 0.0 10171201
14:00+1w11210076 0.1 10171952
17:000nw4108398 0.3 10191160
20:00−6nw4158599 0.5 1024654
10 march, wed
wed1023:00−10wnw248557 0.0 102878
02:00−13w128628 0.0 102920
05:00−14s128645 0.0 102920
08:00−14sse239073 0.0 102882
11:00−7se4108787 0.0 1025459
14:00−3sse479180 0.0 1021489
17:00−2sse369263 0.0 1019381
20:00−7sse239636 0.0 101929
11 march, thu
thu1123:00−8sse239835 0.0 102055
02:00−5s359864 0.0 1018240
05:00−9sse369785 0.0 1016110
08:00−9sse499152 0.0 1015186
11:00−5sse498673 0.0 1011263
14:000s479465 0.0 1010245
17:00+1s1210078 0.0 101240
20:00−2sse009089 0.0 101521